Voltar ao catálogo

DELTA 1 DEB

AtivoSSO
NORAD 42656·DEBRIS·🇺🇸 United States

Lançado Jun 12, 1975 de Vandenberg Space Force Base

Loading…

Próximas Passagens (próximas 24 horas)

TLE

AtualizadoSource: Space-Track

Época: Sep 13, 2026, 22:30 UTC

1 42656U 75052MR  26256.93804606  .00000108  00000-0  29472-3 0  9995
2 42656  99.6969  62.9345 0068099  63.2476 297.5597 13.34488720623647

Acompanhe DELTA 1 DEB em tempo real com AllMySat

Download on the App Store